Springfield, MO

8:09 AM CDT on October 20, 2017 (GMT -0500)
Springfield-Branson Regional

Weather History for KSGF - April, 2013

Change the Weather History Date:

Friday, April 12, 2013

  Actual Average Record
Temperature  
Mean Temperature 43 °F 55 °F  
Max Temperature 53 °F 66 °F 89 °F (1972)
Min Temperature 32 °F 43 °F 22 °F (1940)
Degree Days  
Heating Degree Days 22 11  
Month to date heating degree days 162 151  
Since 1 July heating degree days 4177 4325  
Cooling Degree Days 0 1  
Month to date cooling degree days 6 5  
Year to date cooling degree days 6 8  
Moisture  
Dew Point 30 °F    
Average Humidity 64    
Maximum Humidity 82    
Minimum Humidity 46    
Precipitation  
Precipitation 0.00 in 0.13 in 2.31 in (1945)
Month to date precipitation 1.85 1.54  
Year to date precipitation 11.96 10.15  
Snow  
Snow 0.00 in - - ()
Month to date snowfall T  
Since 1 July snowfall 11.3  
Snow Depth 0.00 in    
Sea Level Pressure  
Sea Level Pressure 29.93 in    
Wind  
Wind Speed 11 mph (West)    
Max Wind Speed 22 mph    
Max Gust Speed 30 mph    
Visibility 10 miles    
Events      
T = Trace of Precipitation, MM = Missing Value Source: NWS Daily Summary

Daily Weather History Graph

Daily Weather History Graph

Search for Another Location

Airport or City:

Trip Planner

Search our weather history database for the weather conditions in past years. The results will help you decide how hot, cold, wet, or windy it might be!

Date:

Astronomy

Apr. 12, 2013 Rise Set
Actual Time 6:42 AM CDT 7:46 PM CDT
Civil Twilight 6:16 AM CDT 8:12 PM CDT
Nautical Twilight 5:44 AM CDT 8:44 PM CDT
Astronomical Twilight 5:11 AM CDT 9:17 PM CDT
Moon 7:56 AM CDT (4/12) 10:14 PM CDT (4/12)
Length of Visible Light 13h 56m
Length of Day
13h 03m
Waxing Crescent, 5% of the Moon is Illuminated
Apr 12
Waxing Crescent
Apr 18
First Quarter
Apr 25
Full
May 2
Last Quarter
May 9
New

Hourly Weather History & Observations

Time (CDT) Temp. Windchill Dew Point Humidity Pressure Visibility Wind Dir Wind Speed Gust Speed Precip Events Conditions
12:52 AM 35.1 °F 29.3 °F 30.0 °F 82% 29.81 in 10.0 mi SW 6.9 mph - N/A   Mostly Cloudy
1:52 AM 36.0 °F 32.1 °F 30.9 °F 82% 29.80 in 10.0 mi WSW 4.6 mph - N/A   Mostly Cloudy
2:52 AM 35.1 °F 29.3 °F 30.0 °F 82% 29.80 in 10.0 mi West 6.9 mph - N/A   Partly Cloudy
3:52 AM 35.1 °F 29.3 °F 30.0 °F 82% 29.81 in 10.0 mi West 6.9 mph - N/A   Partly Cloudy
4:52 AM 37.0 °F 30.4 °F 30.9 °F 79% 29.83 in 10.0 mi West 9.2 mph - N/A   Mostly Cloudy
5:52 AM 37.0 °F 29.3 °F 28.0 °F 70% 29.86 in 10.0 mi West 11.5 mph - N/A   Overcast
6:52 AM 36.0 °F 28.0 °F 27.0 °F 70% 29.87 in 10.0 mi WNW 11.5 mph - N/A   Overcast
7:52 AM 36.0 °F 28.5 °F 26.1 °F 67% 29.89 in 10.0 mi West 10.4 mph - N/A   Clear
8:52 AM 37.9 °F 29.2 °F 27.0 °F 65% 29.92 in 10.0 mi WNW 15.0 mph - N/A   Clear
9:52 AM 39.9 °F 31.1 °F 27.0 °F 60% 29.93 in 10.0 mi West 17.3 mph 27.6 mph N/A   Scattered Clouds
10:29 AM 39.9 °F 32.5 °F 28.0 °F 63% 29.93 in 10.0 mi WNW 12.7 mph 21.9 mph N/A   Mostly Cloudy
10:52 AM 42.1 °F 34.2 °F 28.0 °F 58% 29.96 in 10.0 mi West 16.1 mph 26.5 mph N/A   Mostly Cloudy
10:59 AM 43.0 °F 35.4 °F 28.0 °F 56% 29.94 in 10.0 mi West 16.1 mph 25.3 mph N/A   Mostly Cloudy
11:52 AM 45.0 °F 38.5 °F 28.0 °F 52% 29.96 in 10.0 mi West 13.8 mph 26.5 mph N/A   Clear
12:52 PM 48.0 °F - 28.9 °F 48% 29.98 in 10.0 mi West 15.0 mph 24.2 mph N/A   Clear
1:52 PM 48.9 °F - 30.9 °F 50% 29.97 in 10.0 mi WNW 15.0 mph 28.8 mph N/A   Clear
2:52 PM 50.0 °F - 30.9 °F 48% 29.97 in 10.0 mi West 21.9 mph 26.5 mph N/A   Clear
3:52 PM 51.1 °F - 32.0 °F 48% 29.97 in 10.0 mi WNW 11.5 mph 25.3 mph N/A   Partly Cloudy
4:52 PM 52.0 °F - 33.1 °F 49% 29.97 in 10.0 mi West 19.6 mph 26.5 mph N/A   Partly Cloudy
5:52 PM 52.0 °F - 33.1 °F 49% 29.96 in 10.0 mi West 11.5 mph - N/A   Clear
6:52 PM 51.1 °F - 33.1 °F 50% 29.97 in 10.0 mi WNW 13.8 mph - N/A   Clear
7:52 PM 48.0 °F - 33.1 °F 56% 29.97 in 10.0 mi WNW 5.8 mph - N/A   Clear
8:52 PM 46.0 °F 43.9 °F 33.1 °F 61% 29.99 in 10.0 mi WSW 4.6 mph - N/A   Clear
9:52 PM 39.0 °F 34.8 °F 33.1 °F 79% 30.01 in 10.0 mi SW 5.8 mph - N/A   Clear
10:52 PM 39.0 °F - 33.1 °F 79% 30.03 in 10.0 mi Calm Calm - N/A   Clear
11:52 PM 39.0 °F 35.7 °F 32.0 °F 76% 30.04 in 10.0 mi SW 4.6 mph - N/A   Clear